Location: LewisvilleTX
(33.0462°N, 96.9942°W)
Time: 13:20:10
(UTC+00:00)

MANDRAKE 2 BAKER - Pass Details

Date: 01 June 2022
Orbit: 516 x 532 km, 97.6° (Epoch: 30 June)

Event Time Altitude Azimuth Distance (km) Brightness Sun altitude
Exits shadow 07:33:05 17° 39° (NE) 1,370 ? -32.6°
Drops below altitude 10° 07:34:32 10° 21° (NNE) 1,774 ? -32.5°
Sets 07:36:59 0° 5° (N) 2,664 ? -32.3°
